When you browse on this site, cookies collect data to enhance your experience and personalize the content and advertising you see.
Visit our Privacy Policy to learn more. By continuing to use the site, you agree to this use of cookies and data.
  • In Hungary
  • List of Countries
  • For 7 days
  • Water Temperature
  • Weather Map
  • News
  • Weather Widgets
  • user-avatar
    Login

    Hourly Weather Lypne

    Today, 6 December, Friday

    Time Temperature Precipitation Wind Pressure Humidity
    00:00 -4°C° 0 mm 3 mps 743 mmHg 57%
    01:00 -4°C° 0 mm 3 mps 742 mmHg 57%
    02:00 -4°C° 0 mm 3 mps 742 mmHg 57%
    03:00 -4°C° 0 mm 3 mps 741 mmHg 58%
    04:00 -4°C° 0 mm 3 mps 741 mmHg 59%
    05:00 -4°C° 0 mm 3 mps 741 mmHg 60%
    06:00 -4°C° 0 mm 3 mps 740 mmHg 60%
    07:00 -4°C° 0 mm 3 mps 740 mmHg 61%
    08:00 -4°C° 0 mm 3 mps 740 mmHg 62%
    09:00 -1°C° 0 mm 3 mps 740 mmHg 58%
    10:00 0°C° 0 mm 3 mps 740 mmHg 53%
    11:00 +2°C° 0 mm 3 mps 740 mmHg 49%
    12:00 +2°C° 0 mm 3 mps 740 mmHg 49%
    13:00 +3°C° 0 mm 3 mps 740 mmHg 48%
    14:00 +3°C° 0 mm 3 mps 739 mmHg 48%
    15:00 +2°C° 0 mm 3 mps 739 mmHg 53%
    16:00 0°C° 0 mm 3 mps 738 mmHg 58%
    17:00 -1°C° 0 mm 3 mps 738 mmHg 63%
    18:00 -1°C° 0 mm 3 mps 738 mmHg 63%
    19:00 -2°C° 0 mm 3 mps 738 mmHg 64%
    20:00 -2°C° 0 mm 3 mps 738 mmHg 65%
    21:00 -2°C° 0 mm 3 mps 738 mmHg 65%
    22:00 -2°C° 0 mm 3 mps 738 mmHg 65%
    23:00 -2°C° 0 mm 3 mps 737 mmHg 65%

    Tomorrow, 7 December, Saturday

    Time Temperature Precipitation Wind Pressure Humidity
    00:00 -2°C° 0 mm 3 mps 737 mmHg 64%
    01:00 -2°C° 0 mm 2 mps 737 mmHg 63%
    02:00 -2°C° 0 mm 2 mps 737 mmHg 61%
    03:00 -2°C° 0 mm 2 mps 736 mmHg 63%
    04:00 -2°C° 0 mm 2 mps 736 mmHg 64%
    05:00 -2°C° 0 mm 2 mps 735 mmHg 65%
    06:00 -2°C° 0 mm 2 mps 735 mmHg 64%
    07:00 -2°C° 0 mm 3 mps 735 mmHg 64%
    08:00 -2°C° 0 mm 3 mps 735 mmHg 63%
    09:00 -1°C° 0 mm 3 mps 735 mmHg 59%
    10:00 0°C° 0 mm 3 mps 735 mmHg 54%
    11:00 0°C° 0 mm 4 mps 735 mmHg 50%
    12:00 +1°C° 0 mm 4 mps 734 mmHg 52%
    13:00 +1°C° 0 mm 4 mps 734 mmHg 54%
    14:00 +3°C° 0 mm 4 mps 734 mmHg 56%
    15:00 +1°C° 0 mm 4 mps 734 mmHg 63%
    16:00 0°C° 0 mm 4 mps 733 mmHg 70%
    17:00 -2°C° 0 mm 4 mps 733 mmHg 77%
    18:00 -2°C° 0 mm 4 mps 733 mmHg 79%
    19:00 -2°C° 0 mm 4 mps 734 mmHg 81%
    20:00 -2°C° 0 mm 4 mps 734 mmHg 83%
    21:00 -1°C° 0 mm 4 mps 734 mmHg 83%
    22:00 -1°C° 0 mm 5 mps 734 mmHg 84%
    23:00 -1°C° 0 mm 5 mps 734 mmHg 84%

    Day after tomorrow, 8 December, Sunday

    Time Temperature Precipitation Wind Pressure Humidity
    00:00 0°C° 0 mm 5 mps 734 mmHg 84%
    01:00 0°C° 0 mm 5 mps 734 mmHg 83%
    02:00 +1°C° 0 mm 6 mps 734 mmHg 82%
    03:00 +1°C° 0 mm 6 mps 734 mmHg 83%
    04:00 +1°C° 0 mm 6 mps 733 mmHg 85%
    05:00 +1°C° 0 mm 6 mps 733 mmHg 86%
    06:00 +1°C° 0 mm 6 mps 734 mmHg 86%
    07:00 +1°C° 0 mm 5 mps 734 mmHg 87%
    08:00 +1°C° 0 mm 5 mps 734 mmHg 87%
    09:00 +1°C° 0 mm 5 mps 734 mmHg 86%
    10:00 +1°C° 0 mm 6 mps 735 mmHg 85%
    11:00 +2°C° 0 mm 6 mps 735 mmHg 84%
    12:00 +2°C° 0 mm 6 mps 735 mmHg 80%
    13:00 +3°C° 0 mm 6 mps 735 mmHg 76%
    14:00 +3°C° 0 mm 6 mps 735 mmHg 72%
    15:00 +3°C° 0 mm 5 mps 735 mmHg 76%
    16:00 +3°C° 0 mm 4 mps 735 mmHg 79%
    17:00 +3°C° 0 mm 3 mps 735 mmHg 83%
    18:00 +3°C° 0 mm 3 mps 735 mmHg 84%
    19:00 +3°C° 0 mm 3 mps 735 mmHg 85%
    20:00 +2°C° 0 mm 3 mps 735 mmHg 86%
    21:00 +1°C° 0 mm 4 mps 735 mmHg 86%
    22:00 +1°C° 0 mm 4 mps 735 mmHg 85%
    23:00 0°C° 0 mm 4 mps 734 mmHg 85%

    9 December, Monday

    Time Temperature Precipitation Wind Pressure Humidity
    00:00 0°C° 0 mm 4 mps 734 mmHg 82%
    01:00 +1°C° 0 mm 5 mps 734 mmHg 79%
    02:00 +1°C° 0 mm 5 mps 733 mmHg 77%
    03:00 +1°C° 0 mm 6 mps 733 mmHg 76%
    04:00 +1°C° 0 mm 6 mps 732 mmHg 74%
    05:00 +1°C° 0 mm 6 mps 732 mmHg 73%
    06:00 +1°C° 0 mm 6 mps 732 mmHg 73%
    07:00 +1°C° 0 mm 6 mps 732 mmHg 72%
    08:00 +1°C° 0 mm 5 mps 731 mmHg 71%
    09:00 +2°C° 0 mm 6 mps 731 mmHg 71%
    10:00 +2°C° 0 mm 6 mps 731 mmHg 70%
    11:00 +3°C° 0 mm 6 mps 731 mmHg 69%
    12:00 +3°C° 0 mm 5 mps 730 mmHg 69%
    13:00 +3°C° 0 mm 5 mps 730 mmHg 69%
    14:00 +3°C° 0 mm 5 mps 730 mmHg 69%
    15:00 +4°C° 0.1 mm 4 mps 729 mmHg 71%
    16:00 +4°C° 0.1 mm 4 mps 729 mmHg 73%
    17:00 +4°C° 0.1 mm 4 mps 729 mmHg 74%
    18:00 +4°C° 0.1 mm 4 mps 729 mmHg 76%
    19:00 +4°C° 0.1 mm 4 mps 729 mmHg 78%
    20:00 +3°C° 0.1 mm 3 mps 729 mmHg 79%
    21:00 +3°C° 0 mm 3 mps 729 mmHg 81%
    22:00 +3°C° 0 mm 3 mps 729 mmHg 82%
    23:00 +2°C° 0 mm 3 mps 729 mmHg 83%

    10 December, Tuesday

    Time Temperature Precipitation Wind Pressure Humidity
    00:00 +2°C° 0 mm 3 mps 728 mmHg 84%
    01:00 +2°C° 0 mm 3 mps 728 mmHg 84%
    02:00 +2°C° 0 mm 3 mps 727 mmHg 85%
    03:00 +2°C° 0 mm 3 mps 727 mmHg 84%
    04:00 +2°C° 0 mm 3 mps 727 mmHg 84%
    05:00 +2°C° 0 mm 3 mps 727 mmHg 84%
    06:00 +2°C° 0 mm 3 mps 727 mmHg 84%
    07:00 +1°C° 0 mm 3 mps 727 mmHg 84%
    08:00 +1°C° 0 mm 3 mps 727 mmHg 85%
    09:00 +2°C° 0.1 mm 3 mps 727 mmHg 85%
    10:00 +2°C° 0.1 mm 3 mps 727 mmHg 85%
    11:00 +2°C° 0.1 mm 3 mps 728 mmHg 85%
    12:00 +3°C° 0.1 mm 3 mps 728 mmHg 85%
    13:00 +3°C° 0.1 mm 3 mps 728 mmHg 85%
    14:00 +4°C° 0.1 mm 3 mps 729 mmHg 85%
    15:00 +3°C° 0 mm 3 mps 729 mmHg 86%
    16:00 +3°C° 0 mm 3 mps 730 mmHg 86%
    17:00 +3°C° 0 mm 2 mps 730 mmHg 87%
    18:00 +2°C° 0 mm 3 mps 731 mmHg 86%
    19:00 +1°C° 0 mm 4 mps 732 mmHg 85%
    20:00 +1°C° 0 mm 4 mps 732 mmHg 84%
    21:00 +1°C° 0 mm 5 mps 733 mmHg 84%
    22:00 +1°C° 0 mm 5 mps 733 mmHg 83%
    23:00 +1°C° 0 mm 5 mps 733 mmHg 82%

    11 December, Wednesday

    Time Temperature Precipitation Wind Pressure Humidity
    00:00 +1°C° 0 mm 5 mps 734 mmHg 83%
    01:00 0°C° 0 mm 5 mps 734 mmHg 85%
    02:00 0°C° 0 mm 5 mps 734 mmHg 86%
    03:00 0°C° 0 mm 5 mps 734 mmHg 87%
    04:00 -1°C° 0 mm 6 mps 735 mmHg 89%
    05:00 -1°C° 0 mm 6 mps 735 mmHg 91%
    06:00 0°C° 0.1 mm 5 mps 736 mmHg 88%
    07:00 -1°C° 0.1 mm 5 mps 736 mmHg 84%
    08:00 -2°C° 0.1 mm 4 mps 737 mmHg 81%
    09:00 -2°C° 0 mm 4 mps 737 mmHg 74%
    10:00 -1°C° 0 mm 4 mps 738 mmHg 68%
    11:00 0°C° 0 mm 3 mps 738 mmHg 61%
    12:00 0°C° 0 mm 3 mps 738 mmHg 57%
    13:00 +1°C° 0 mm 2 mps 738 mmHg 54%
    14:00 +2°C° 0 mm 2 mps 738 mmHg 50%
    15:00 +1°C° 0 mm 2 mps 738 mmHg 52%
    16:00 -1°C° 0 mm 2 mps 738 mmHg 55%
    17:00 -2°C° 0 mm 2 mps 738 mmHg 57%
    18:00 -2°C° 0 mm 2 mps 737 mmHg 58%
    19:00 -2°C° 0 mm 3 mps 737 mmHg 59%
    20:00 -1°C° 0 mm 3 mps 737 mmHg 60%
    21:00 -1°C° 0 mm 3 mps 737 mmHg 64%
    22:00 -2°C° 0 mm 4 mps 737 mmHg 67%
    23:00 -2°C° 0 mm 4 mps 737 mmHg 70%
    Show more